When you browse on this site, cookies collect data to enhance your experience and personalize the content and advertising you see.
Visit our Privacy Policy to learn more. By continuing to use the site, you agree to this use of cookies and data.
  • In United Kingdom
  • List of Countries
  • For 7 days
  • Water Temperature
  • Satellite Maps
  • Weather Map
  • Weather Widgets
  • user-avatar
    Login

    Hourly Weather Santiago de Cuba

    Today, 19 November, Monday

    Time Temperature Precipitation Wind Pressure Humidity
    00:00 +26°C° 0 mm 2 mps 758 mmHg 97%
    01:00 +25°C° 0 mm 2 mps 758 mmHg 97%
    02:00 +25°C° 0 mm 2 mps 758 mmHg 97%
    03:00 +25°C° 0 mm 2 mps 758 mmHg 97%
    04:00 +25°C° 0 mm 2 mps 757 mmHg 98%
    05:00 +25°C° 0 mm 2 mps 758 mmHg 97%
    06:00 +25°C° 0 mm 2 mps 758 mmHg 97%
    07:00 +25°C° 0 mm 2 mps 758 mmHg 95%
    08:00 +27°C° 0 mm 2 mps 758 mmHg 84%
    09:00 +29°C° 0 mm 2 mps 759 mmHg 72%
    10:00 +31°C° 0 mm 2 mps 759 mmHg 60%
    11:00 +32°C° 0 mm 2 mps 758 mmHg 55%
    12:00 +34°C° 0 mm 2 mps 758 mmHg 49%
    13:00 +35°C° 0 mm 2 mps 758 mmHg 44%
    14:00 +34°C° 0 mm 2 mps 758 mmHg 49%
    15:00 +34°C° 0 mm 3 mps 757 mmHg 54%
    16:00 +33°C° 0 mm 3 mps 757 mmHg 59%
    17:00 +30°C° 0 mm 2 mps 757 mmHg 68%
    18:00 +28°C° 0 mm 2 mps 758 mmHg 77%
    19:00 +27°C° 0 mm 2 mps 758 mmHg 86%
    20:00 +26°C° 0 mm 2 mps 758 mmHg 88%
    21:00 +26°C° 0 mm 2 mps 758 mmHg 90%
    22:00 +26°C° 0 mm 1 mps 759 mmHg 93%
    23:00 +25°C° 0 mm 1 mps 759 mmHg 93%

    Tomorrow, 20 November, Tuesday

    Time Temperature Precipitation Wind Pressure Humidity
    00:00 +25°C° 0 mm 2 mps 758 mmHg 94%
    01:00 +25°C° 0 mm 2 mps 758 mmHg 95%
    02:00 +24°C° 0 mm 2 mps 758 mmHg 95%
    03:00 +24°C° 0 mm 2 mps 758 mmHg 96%
    04:00 +24°C° 0 mm 2 mps 758 mmHg 96%
    05:00 +24°C° 0 mm 2 mps 758 mmHg 95%
    06:00 +24°C° 0 mm 2 mps 758 mmHg 94%
    07:00 +24°C° 0 mm 2 mps 758 mmHg 93%
    08:00 +27°C° 0 mm 1 mps 759 mmHg 81%
    09:00 +29°C° 0 mm 1 mps 759 mmHg 70%
    10:00 +32°C° 0 mm 1 mps 759 mmHg 58%
    11:00 +33°C° 0 mm 1 mps 759 mmHg 54%
    12:00 +34°C° 0 mm 1 mps 758 mmHg 50%
    13:00 +35°C° 0 mm 1 mps 758 mmHg 46%
    14:00 +34°C° 0 mm 1 mps 757 mmHg 51%
    15:00 +34°C° 0 mm 2 mps 757 mmHg 56%
    16:00 +32°C° 0 mm 2 mps 757 mmHg 61%
    17:00 +30°C° 0 mm 2 mps 757 mmHg 68%
    18:00 +28°C° 0 mm 2 mps 758 mmHg 76%
    19:00 +27°C° 0 mm 1 mps 758 mmHg 83%
    20:00 +26°C° 0 mm 1 mps 759 mmHg 86%
    21:00 +26°C° 0 mm 1 mps 759 mmHg 88%
    22:00 +26°C° 0 mm 1 mps 759 mmHg 90%
    23:00 +25°C° 0 mm 1 mps 759 mmHg 91%

    Day after tomorrow, 21 November, Wednesday

    Time Temperature Precipitation Wind Pressure Humidity
    00:00 +25°C° 0 mm 1 mps 759 mmHg 93%
    01:00 +25°C° 0 mm 2 mps 759 mmHg 94%
    02:00 +24°C° 0 mm 2 mps 759 mmHg 94%
    03:00 +24°C° 0 mm 2 mps 759 mmHg 95%
    04:00 +24°C° 0 mm 2 mps 758 mmHg 95%
    05:00 +24°C° 0 mm 2 mps 759 mmHg 95%
    06:00 +24°C° 0 mm 2 mps 759 mmHg 94%
    07:00 +24°C° 0 mm 2 mps 759 mmHg 93%
    08:00 +27°C° 0 mm 2 mps 759 mmHg 82%
    09:00 +29°C° 0 mm 2 mps 760 mmHg 70%
    10:00 +32°C° 0 mm 2 mps 760 mmHg 59%
    11:00 +34°C° 0 mm 2 mps 760 mmHg 55%
    12:00 +34°C° 0 mm 2 mps 759 mmHg 52%
    13:00 +35°C° 0 mm 2 mps 758 mmHg 48%
    14:00 +34°C° 0 mm 2 mps 758 mmHg 53%
    15:00 +33°C° 0 mm 3 mps 758 mmHg 59%
    16:00 +31°C° 0 mm 3 mps 757 mmHg 65%
    17:00 +29°C° 0.1 mm 3 mps 758 mmHg 72%
    18:00 +28°C° 0.1 mm 2 mps 758 mmHg 78%
    19:00 +27°C° 0.1 mm 2 mps 758 mmHg 85%
    20:00 +26°C° 0 mm 2 mps 759 mmHg 88%
    21:00 +25°C° 0 mm 2 mps 759 mmHg 91%
    22:00 +25°C° 0 mm 2 mps 759 mmHg 94%
    23:00 +24°C° 0 mm 2 mps 759 mmHg 94%

    22 November, Thursday

    Time Temperature Precipitation Wind Pressure Humidity
    00:00 +24°C° 0 mm 2 mps 759 mmHg 95%
    01:00 +23°C° 0 mm 1 mps 758 mmHg 96%
    02:00 +23°C° 0 mm 1 mps 758 mmHg 96%
    03:00 +23°C° 0 mm 1 mps 758 mmHg 96%
    04:00 +23°C° 0 mm 1 mps 758 mmHg 96%
    05:00 +23°C° 0 mm 1 mps 758 mmHg 95%
    06:00 +23°C° 0 mm 1 mps 758 mmHg 94%
    07:00 +23°C° 0 mm 1 mps 759 mmHg 93%
    08:00 +26°C° 0 mm 1 mps 759 mmHg 82%
    09:00 +29°C° 0 mm 1 mps 759 mmHg 71%
    10:00 +32°C° 0 mm 1 mps 759 mmHg 59%
    11:00 +32°C° 0 mm 1 mps 759 mmHg 55%
    12:00 +33°C° 0 mm 1 mps 758 mmHg 51%
    13:00 +34°C° 0 mm 1 mps 757 mmHg 47%
    14:00 +33°C° 0 mm 1 mps 757 mmHg 52%
    15:00 +32°C° 0 mm 2 mps 757 mmHg 57%
    16:00 +31°C° 0 mm 2 mps 756 mmHg 63%
    17:00 +29°C° 0 mm 1 mps 756 mmHg 72%
    18:00 +28°C° 0 mm 1 mps 757 mmHg 81%
    19:00 +26°C° 0 mm 1 mps 757 mmHg 89%
    20:00 +26°C° 0.4 mm 1 mps 757 mmHg 91%
    21:00 +26°C° 0.4 mm 1 mps 758 mmHg 92%
    22:00 +25°C° 0.4 mm 1 mps 758 mmHg 94%
    23:00 +25°C° 0.2 mm 1 mps 758 mmHg 94%

    23 November, Friday

    Time Temperature Precipitation Wind Pressure Humidity
    00:00 +23°C° 0.2 mm 0 mps 757 mmHg 95%
    01:00 +23°C° 0.2 mm 0 mps 757 mmHg 96%
    02:00 +23°C° 0 mm 0 mps 756 mmHg 96%
    03:00 +25°C° 0 mm 1 mps 756 mmHg 96%
    04:00 +24°C° 0 mm 1 mps 756 mmHg 96%
    05:00 +25°C° 0.1 mm 1 mps 756 mmHg 95%
    06:00 +23°C° 0.1 mm 0 mps 757 mmHg 94%
    07:00 +23°C° 0.1 mm 0 mps 757 mmHg 94%
    08:00 +25°C° 0.1 mm 0 mps 757 mmHg 83%
    09:00 +28°C° 0.1 mm 0 mps 757 mmHg 72%
    10:00 +30°C° 0.1 mm 0 mps 758 mmHg 62%
    11:00 +32°C° 0 mm 1 mps 757 mmHg 59%
    12:00 +33°C° 0 mm 1 mps 756 mmHg 56%
    13:00 +33°C° 0 mm 1 mps 756 mmHg 52%
    14:00 +32°C° 0.2 mm 1 mps 755 mmHg 58%
    15:00 +31°C° 0.2 mm 1 mps 755 mmHg 63%
    16:00 +30°C° 0.2 mm 1 mps 755 mmHg 68%
    17:00 +29°C° 0.1 mm 1 mps 755 mmHg 75%
    18:00 +27°C° 0.1 mm 1 mps 755 mmHg 81%
    19:00 +26°C° 0.1 mm 1 mps 756 mmHg 87%
    20:00 +26°C° 0 mm 1 mps 756 mmHg 89%
    21:00 +25°C° 0 mm 1 mps 756 mmHg 90%
    22:00 +23°C° 0 mm 0 mps 756 mmHg 92%
    23:00 +23°C° 0 mm 0 mps 756 mmHg 93%

    24 November, Saturday

    Time Temperature Precipitation Wind Pressure Humidity
    00:00 +22°C° 0 mm 0 mps 756 mmHg 93%
    01:00 +22°C° 0 mm 0 mps 755 mmHg 94%
    02:00 +22°C° 0 mm 0 mps 755 mmHg 94%
    03:00 +24°C° 0 mm 1 mps 755 mmHg 94%
    04:00 +24°C° 0 mm 1 mps 755 mmHg 95%
    05:00 +24°C° 0 mm 1 mps 756 mmHg 94%
    06:00 +22°C° 0 mm 0 mps 756 mmHg 93%
    07:00 +23°C° 0 mm 0 mps 756 mmHg 92%
    08:00 +27°C° 0 mm 1 mps 757 mmHg 81%
    09:00 +29°C° 0 mm 1 mps 757 mmHg 71%
    10:00 +31°C° 0 mm 1 mps 757 mmHg 61%
    11:00 +32°C° 0 mm 1 mps 756 mmHg 59%
    12:00 +32°C° 0 mm 1 mps 756 mmHg 56%
    13:00 +33°C° 0 mm 1 mps 755 mmHg 54%
    14:00 +32°C° 0 mm 1 mps 755 mmHg 58%
    15:00 +31°C° 0 mm 1 mps 754 mmHg 61%
    16:00 +31°C° 0 mm 1 mps 754 mmHg 65%
    17:00 +29°C° 0 mm 1 mps 755 mmHg 73%
    18:00 +27°C° 0 mm 1 mps 755 mmHg 81%
    19:00 +24°C° 0 mm 0 mps 756 mmHg 88%
    20:00 +24°C° 0 mm 0 mps 756 mmHg 90%
    21:00 +23°C° 0 mm 0 mps 756 mmHg 91%
    22:00 +23°C° 0 mm 0 mps 756 mmHg 93%
    23:00 +23°C° 0 mm 0 mps 756 mmHg 93%
    Show more